Location: Newark
(35.5936°N, 43.2312°E)
Time: 02:29:01
(UTC+00:00)

N. Korean satellite - Visible Passes

Search period start: 15 October 2019 00:00
Search period end: 25 October 2019 00:00
Orbit: 455 x 508 km, 97.2° (Epoch: 14 October)

Date Brightness Start Highest point End Pass type
(mag) Time Alt. Az. Time Alt. Az. Time Alt. Az.
15 Oct 9.6 02:17:03 10° NE 02:19:49 21° E 02:22:37 10° SSE visible
17 Oct 9.8 15:05:58 10° SW 15:08:26 19° W 15:10:56 10° NW visible
18 Oct 8.5 02:34:02 10° NNE 02:37:23 36° E 02:40:47 10° SSE visible
19 Oct 10.0 02:09:35 10° NE 02:12:01 17° E 02:14:27 10° SE visible
20 Oct 10.5 15:25:12 10° WSW 15:26:02 11° W 15:26:52 10° WNW visible
21 Oct 7.1 02:51:18 10° NNE 02:54:55 67° E 02:58:34 10° S visible
21 Oct 9.3 14:57:47 10° SSW 15:00:34 23° W 15:03:24 10° NW visible
22 Oct 9.0 02:26:22 10° NE 02:29:34 29° E 02:32:48 10° SSE visible
23 Oct 10.2 02:02:13 10° ENE 02:04:09 14° E 02:06:06 10° SE visible
24 Oct 10.1 15:16:18 10° SW 15:18:07 14° W 15:19:56 10° WNW visible
